FW3734 Weather Reports


Display with metric or nautical units.
time (UTC)temp
F
wind
direction
speed
MPH
gust
MPH
rain 1hr
in
rain 24hr
in
rain mn
in
humidity
%
barometer
mb
20260509221508 81 347 0.0 2.0 0.00 0.40 0.00 41 1007.6
20260509220007 81 186 0.0 5.0 0.00 0.40 0.00 40 1007.6
20260509214505 81 300 0.0 5.0 0.00 0.40 0.00 41 1007.6
20260509213006 81 347 0.0 8.0 0.00 0.40 0.00 40 1007.6
20260509211502 81 211 0.0 5.0 0.00 0.40 0.00 40 1007.7
20260509210104 80 224 0.0 8.0 0.00 0.40 0.00 40 1007.9
20260509204605 80 190 0.0 4.0 0.00 0.40 0.00 42 1007.9
20260509203058 80 198 0.0 9.0 0.00 0.40 0.00 40 1008.1
20260509201554 80 257 0.0 2.0 0.00 0.40 0.00 42 1008.2
20260509200053 79 284 1.0 13.0 0.00 0.40 0.00 41 1008.3
20260509194649 78 257 0.0 3.0 0.00 0.40 0.00 45 1008.2
20260509193046 78 244 0.0 9.0 0.00 0.40 0.00 46 1008.4
20260509191546 78 268 3.0 16.0 0.00 0.40 0.00 44 1008.5
20260509190041 77 326 1.0 16.0 0.00 0.40 0.00 45 1008.6
20260509184539 78 207 0.0 12.0 0.00 0.40 0.00 45 1008.6
20260509183034 77 289 0.0 10.0 0.00 0.40 0.00 48 1008.7
20260509181532 76 43 0.0 5.0 0.00 0.40 0.00 49 1008.7
20260509180027 76 259 0.0 10.0 0.00 0.40 0.00 51 1008.7
20260509174525 75 240 0.0 11.0 0.00 0.40 0.00 51 1008.8
20260509173020 74 307 0.0 7.0 0.00 0.40 0.00 57 1009.0
20260509171516 73 243 0.0 7.0 0.00 0.40 0.00 59 1009.2
20260509170013 71 333 0.0 9.0 0.00 0.40 0.00 63 1009.3
20260509164508 70 246 0.0 10.0 0.00 0.40 0.00 66 1009.5
20260509163016 69 235 0.0 10.0 0.00 0.40 0.00 68 1009.6
20260509161501 68 11 0.0 8.0 0.00 0.40 0.00 73 1009.6
20260509160100 67 196 1.0 5.0 0.00 0.40 0.00 73 1009.6
20260509154604 66 200 0.0 5.0 0.00 0.40 0.00 79 1009.4
20260509153050 64 186 1.0 7.0 0.00 0.40 0.00 81 1009.5
20260509151546 63 215 1.0 5.0 0.00 0.40 0.00 84 1009.4
20260509150042 62 153 0.0 3.0 0.00 0.40 0.00 87 1009.4
20260509144558 60 196 2.0 8.0 0.00 0.40 0.00 90 1009.3
20260509143039 59 238 1.0 7.0 0.00 0.40 0.00 92 1009.4
20260509141537 59 204 1.0 4.0 0.00 0.40 0.00 93 1009.4
20260509140052 58 248 2.0 6.0 0.00 0.40 0.00 93 1009.1
20260509134528 57 208 0.0 2.0 0.00 0.40 0.00 94 1009.0
20260509133027 57 219 2.0 7.0 0.00 0.40 0.00 94 1009.0
20260509131534 56 329 0.0 6.0 0.00 0.40 0.00 94 1009.0
20260509130028 57 197 1.0 4.0 0.00 0.40 0.00 94 1009.1
20260509124524 56 200 0.0 0.0 0.00 0.40 0.00 94 1009.1
20260509123025 56 247 0.0 4.0 0.00 0.40 0.00 94 1009.1
20260509121521 56 281 0.0 3.0 0.00 0.40 0.00 94 1009.0
20260509120019 56 212 1.0 4.0 0.00 0.40 0.00 94 1008.8
20260509114518 56 274 2.0 8.0 0.00 0.40 0.00 94 1008.7
20260509113017 56 268 0.0 2.0 0.00 0.40 0.00 94 1008.5
20260509111515 56 209 0.0 1.0 0.00 0.40 0.00 94 1008.6
20260509110016 56 211 0.0 3.0 0.00 0.40 0.00 94 1008.6
20260509104515 56 201 1.0 4.0 0.00 0.40 0.00 94 1008.8
20260509103012 56 241 0.0 5.0 0.00 0.40 0.00 94 1008.5
20260509101511 56 193 0.0 2.0 0.00 0.40 0.00 94 1008.4
20260509100011 56 240 0.0 3.0 0.00 0.40 0.00 94 1008.2
20260509094508 56 188 0.0 3.0 0.00 0.40 0.00 94 1008.2
20260509093007 56 255 0.0 3.0 0.00 0.40 0.00 94 1008.2
20260509091506 56 231 0.0 2.0 0.00 0.40 0.00 94 1008.0
20260509090006 56 217 0.0 3.0 0.00 0.40 0.00 94 1007.9
20260509084507 56 277 0.0 2.0 0.00 0.40 0.00 94 1007.8
20260509083003 56 234 0.0 2.0 0.00 0.40 0.00 94 1008.0
20260509081502 56 290 0.0 4.0 0.00 0.40 0.00 93 1008.0
20260509080002 56 192 0.0 2.0 0.00 0.40 0.00 93 1007.8
20260509074603 56 215 0.0 3.0 0.00 0.40 0.00 93 1007.9
20260509073057 57 250 0.0 5.0 0.00 0.40 0.00 93 1007.9
20260509071556 57 235 0.0 0.0 0.00 0.40 0.00 93 1008.0
20260509070057 57 240 0.0 2.0 0.00 0.40 0.00 93 1008.0
20260509064554 57 263 0.0 1.0 0.00 0.40 0.00 93 1007.9
20260509063103 57 263 0.0 0.0 0.00 0.40 0.00 93 1008.0
20260509061551 57 194 0.0 0.0 0.00 0.40 0.00 93 1007.9
20260509060057 57 152 0.0 0.0 0.00 0.40 0.00 93 1007.8
20260509054549 57 152 0.0 0.0 0.00 0.40 0.00 93 1008.1
20260509053111 57 157 0.0 0.0 0.00 0.40 0.00 93 1008.1
20260509051545 57 128 0.0 1.0 0.00 0.40 0.00 92 1008.1
20260509050044 57 142 0.0 1.0 0.01 0.40 0.00 93 1008.1
20260509044543 57 150 0.0 2.0 0.03 0.40 0.40 92 1008.4
20260509043101 57 68 0.0 1.0 0.07 0.40 0.40 92 1008.3
20260509041555 58 217 0.0 0.0 0.13 0.40 0.40 92 1008.3
20260509040045 58 346 0.0 0.0 0.17 0.39 0.39 92 1008.9
20260509034558 58 346 0.0 0.0 0.22 0.37 0.37 91 1009.1
20260509033041 58 346 0.0 0.0 0.25 0.33 0.33 91 1009.3
20260509031539 58 346 0.0 0.0 0.24 0.27 0.27 91 1009.7
20260509030039 58 346 0.0 3.0 0.20 0.22 0.22 90 1009.4
20260509024537 59 20 0.0 7.0 0.13 0.15 0.15 89 1009.5
20260509023038 59 213 0.0 3.0 0.06 0.08 0.08 89 1009.4
20260509021535 59 349 0.0 0.0 0.01 0.03 0.03 88 1009.2
20260509020040 60 15 0.0 0.0 0.00 0.02 0.02 87 1009.0
20260509014534 60 21 0.0 0.0 0.01 0.02 0.02 86 1008.5
20260509013046 60 62 0.0 0.0 0.02 0.02 0.02 85 1008.3
20260509011534 61 74 0.0 4.0 0.02 0.02 0.02 83 1007.8
20260509010046 62 71 1.0 5.0 0.01 0.01 0.01 81 1008.1
20260509004530 63 355 0.0 8.0 0.01 0.01 0.01 77 1008.1
20260509003029 65 350 2.0 8.0 0.00 0.00 0.00 70 1007.8
20260509001528 67 360 0.0 3.0 0.00 0.00 0.00 64 1008.0
20260509000028 69 355 0.0 5.0 0.00 0.00 0.00 61 1007.9
20260508234528 70 16 0.0 3.0 0.00 0.00 0.00 59 1007.7
20260508233027 71 311 0.0 6.0 0.00 0.00 0.00 55 1007.8
20260508231524 71 251 0.0 0.0 0.00 0.00 0.00 53 1007.9
20260508230035 72 22 0.0 0.0 0.00 0.00 0.00 51 1008.0
20260508224533 72 350 0.0 1.0 0.00 0.00 0.00 50 1008.0
20260508223022 73 290 0.0 11.0 0.00 0.00 0.00 47 1008.0